Volk, WI

2:11 AM CDT on July 22, 2017 (GMT -0500)
Volk

Weather History for KVOK - November, 2013

Change the Weather History Date:

Monday, November 18, 2013

  Actual Average Record
Temperature  
Mean Temperature 26 °F -  
Max Temperature 34 °F 38 °F 68 °F (2016)
Min Temperature 15 °F 26 °F 6 °F (2008)
Degree Days  
Heating Degree Days 40    
Moisture  
Dew Point 22 °F    
Average Humidity 74    
Maximum Humidity 95    
Minimum Humidity 64    
Precipitation  
Precipitation 0.00 in - - ()
Sea Level Pressure  
Sea Level Pressure 30.04 in    
Wind  
Wind Speed 18 mph (WNW)    
Max Wind Speed 26 mph    
Max Gust Speed 38 mph    
Visibility 10 miles    
Events      
Averages and records for this station are not official NWS values.
T = Trace of Precipitation, MM = Missing Value Source: NWS Daily Summary

Daily Weather History Graph

Daily Weather History Graph

Search for Another Location

Airport or City:

Trip Planner

Search our weather history database for the weather conditions in past years. The results will help you decide how hot, cold, wet, or windy it might be!

Date:

Astronomy

Nov. 18, 2013 Rise Set
Actual Time 7:00 AM CST 4:32 PM CST
Civil Twilight 6:28 AM CST 5:03 PM CST
Nautical Twilight 5:53 AM CST 5:38 PM CST
Astronomical Twilight 5:19 AM CST 6:12 PM CST
Moon 5:33 PM CST (11/18) 7:49 AM CST (11/18)
Length of Visible Light 10h 34m
Length of Day
9h 32m
Full, 99% of the Moon is Illuminated
Nov 18
Full
Nov 25
Last Quarter
Dec 2
New
Dec 9
First Quarter
Dec 17
Full

Hourly Weather History & Observations

Time (CST) Temp. Windchill Dew Point Humidity Pressure Visibility Wind Dir Wind Speed Gust Speed Precip Events Conditions
12:58 AM 34.5 °F 22.3 °F 28.4 °F 78% 29.72 in 10.0 mi West 24.2 mph 34.5 mph N/A   Overcast
1:58 AM 34.0 °F 21.0 °F 27.0 °F 75% 29.75 in 10.0 mi West 26.5 mph 33.4 mph N/A   Overcast
2:58 AM 33.8 °F 22.8 °F 26.4 °F 74% 29.78 in 10.0 mi West 18.4 mph 31.1 mph N/A   Overcast
3:58 AM 33.1 °F 20.9 °F 25.7 °F 74% 29.81 in 10.0 mi WNW 21.9 mph 31.1 mph N/A   Overcast
4:58 AM 32.7 °F 21.4 °F 24.8 °F 73% 29.83 in 10.0 mi WNW 18.4 mph 29.9 mph N/A   Overcast
5:33 AM 32.0 °F 20.5 °F 24.8 °F 75% 29.82 in 10.0 mi WNW 18.4 mph - N/A   Overcast
5:58 AM 32.4 °F 22.5 °F 25.2 °F 75% 29.87 in 10.0 mi West 13.8 mph 23.0 mph N/A   Overcast
6:58 AM 32.0 °F 20.5 °F 23.0 °F 69% 29.88 in 10.0 mi WNW 18.4 mph 27.6 mph N/A   Overcast
7:58 AM 32.0 °F 20.1 °F 23.0 °F 69% 29.93 in 10.0 mi WNW 19.6 mph 31.1 mph N/A   Overcast
8:33 AM 32.0 °F 18.6 °F 21.2 °F 64% 29.91 in 10.0 mi WNW 25.3 mph 38.0 mph N/A   Overcast
8:58 AM 32.0 °F 20.8 °F 21.2 °F 64% 29.97 in 10.0 mi WNW 17.3 mph 31.1 mph N/A   Overcast
9:58 AM 32.0 °F 21.2 °F 21.2 °F 64% 30.02 in 10.0 mi WNW 16.1 mph 32.2 mph N/A   Overcast
10:58 AM 32.0 °F 20.5 °F 21.2 °F 64% 30.04 in 10.0 mi WNW 18.4 mph 28.8 mph N/A   Overcast
11:58 AM 32.0 °F 19.2 °F 21.2 °F 64% 30.07 in 10.0 mi WNW 23.0 mph 31.1 mph N/A   Overcast
12:58 PM 32.0 °F 20.8 °F 21.2 °F 64% 30.10 in 10.0 mi NW 17.3 mph 25.3 mph N/A   Overcast
1:58 PM 32.0 °F 20.8 °F 21.2 °F 64% 30.12 in 10.0 mi West 17.3 mph 25.3 mph N/A   Overcast
2:58 PM 32.0 °F 21.2 °F 21.2 °F 64% 30.14 in 10.0 mi West 16.1 mph - N/A   Overcast
3:58 PM 32.0 °F 20.8 °F 21.2 °F 64% 30.17 in 10.0 mi WNW 17.3 mph 24.2 mph N/A   Mostly Cloudy
4:58 PM 30.2 °F 21.3 °F 21.2 °F 69% 30.19 in 10.0 mi NW 10.4 mph - N/A   Mostly Cloudy
5:18 PM 28.4 °F 19.7 °F 21.2 °F 74% 30.16 in 10.0 mi WNW 9.2 mph - N/A   Scattered Clouds
5:58 PM 26.6 °F 19.1 °F 21.2 °F 80% 30.22 in 10.0 mi NW 6.9 mph - N/A   Partly Cloudy
6:58 PM 26.6 °F 18.2 °F 19.4 °F 74% 30.24 in 10.0 mi WNW 8.1 mph - N/A   Partly Cloudy
7:58 PM 21.2 °F 14.9 °F 19.4 °F 93% 30.26 in 10.0 mi West 4.6 mph - N/A   Clear
8:58 PM 21.2 °F 13.6 °F 17.6 °F 86% 30.27 in 10.0 mi West 5.8 mph - N/A   Clear
9:58 PM 17.6 °F 9.3 °F 15.8 °F 93% 30.30 in 10.0 mi WNW 5.8 mph - N/A   Clear
10:58 PM 17.6 °F 9.3 °F 15.8 °F 93% 30.30 in 10.0 mi West 5.8 mph - N/A   Clear
11:58 PM 15.6 °F 7.0 °F 14.4 °F 95% 30.30 in 10.0 mi WNW 5.8 mph - N/A   Clear